iso_date,epoch_date,Year,Hour,Min,DOY,POS_DOY,Lat,Lon,BP,Ts,Ta,has_bp,has_ts,has_ta,BuoyID,Buoy_Type,Buoy_Owner,Logistics,Hemisphere
2015-12-17T14:11:02Z,1450361462,2015,14,11,351.591,351.591,67.36728,26.6274,-999.00,-999.00,-999.0,no,no,no,300234060792690,IMB,SAMS,unknown,North
2015-12-17T16:00:28Z,1450368029,2015,16,1,351.667,351.667,67.36727,26.62734,-999.00,-999.00,-999.0,no,no,no,300234060792690,IMB,SAMS,unknown,North
2015-12-17T18:00:00Z,1450375200,2015,18,0,351.75,351.75,67.36717,26.6273,-999.00,-999.00,-999.0,no,no,no,300234060792690,IMB,SAMS,unknown,North
2015-12-17T20:02:24Z,1450382544,2015,20,3,351.835,351.835,67.36721,26.62753,-999.00,-999.00,-999.0,no,no,no,300234060792690,IMB,SAMS,unknown,North
2015-12-17T22:00:28Z,1450389629,2015,22,1,351.917,351.917,67.36725,26.62739,-999.00,-999.00,-999.0,no,no,no,300234060792690,IMB,SAMS,unknown,North
2015-12-18T00:00:00Z,1450396800,2015,0,0,352.0,352.0,67.36733,26.62769,-999.00,-999.00,-999.0,no,no,no,300234060792690,IMB,SAMS,unknown,North
2015-12-18T02:03:50Z,1450404230,2015,2,4,352.086,352.086,67.36729,26.62739,-999.00,-999.00,-999.0,no,no,no,300234060792690,IMB,SAMS,unknown,North
2015-12-18T04:00:28Z,1450411229,2015,4,1,352.167,352.167,67.36728,26.62773,-999.00,-999.00,-999.0,no,no,no,300234060792690,IMB,SAMS,unknown,North
2015-12-18T06:00:00Z,1450418400,2015,6,0,352.25,352.25,67.3672,26.6276,-999.00,-999.00,-999.0,no,no,no,300234060792690,IMB,SAMS,unknown,North
2015-12-18T08:02:24Z,1450425744,2015,8,2,352.335,352.335,67.34624,26.82769,-999.00,-999.00,-999.0,no,no,no,300234060792690,IMB,SAMS,unknown,North
2015-12-18T10:00:28Z,1450432829,2015,10,0,352.417,352.417,67.34636,26.8276,-999.00,-999.00,-999.0,no,no,no,300234060792690,IMB,SAMS,unknown,North
2015-12-18T12:00:00Z,1450440000,2015,12,0,352.5,352.5,67.34636,26.82751,-999.00,-999.00,-999.0,no,no,no,300234060792690,IMB,SAMS,unknown,North
2015-12-18T14:05:16Z,1450447517,2015,14,6,352.587,352.587,67.34632,26.82758,-999.00,-999.00,-999.0,no,no,no,300234060792690,IMB,SAMS,unknown,North
2015-12-18T16:00:28Z,1450454429,2015,16,0,352.667,352.667,67.34629,26.82755,-999.00,-999.00,-999.0,no,no,no,300234060792690,IMB,SAMS,unknown,North
2015-12-18T18:00:00Z,1450461600,2015,18,0,352.75,352.75,67.34627,26.82755,-999.00,-999.00,-999.0,no,no,no,300234060792690,IMB,SAMS,unknown,North
2015-12-18T20:02:24Z,1450468944,2015,20,2,352.835,352.835,67.34632,26.82761,-999.00,-999.00,-999.0,no,no,no,300234060792690,IMB,SAMS,unknown,North
2015-12-18T22:00:28Z,1450476029,2015,22,0,352.917,352.917,67.34629,26.82757,-999.00,-999.00,-999.0,no,no,no,300234060792690,IMB,SAMS,unknown,North
2015-12-19T00:01:26Z,1450483286,2015,0,1,353.001,353.001,67.34627,26.8276,-999.00,-999.00,-999.0,no,no,no,300234060792690,IMB,SAMS,unknown,North
2015-12-19T02:02:24Z,1450490544,2015,2,2,353.085,353.085,67.34633,26.82751,-999.00,-999.00,-999.0,no,no,no,300234060792690,IMB,SAMS,unknown,North
2015-12-19T04:00:28Z,1450497629,2015,4,0,353.167,353.167,67.34632,26.82766,-999.00,-999.00,-999.0,no,no,no,300234060792690,IMB,SAMS,unknown,North
2015-12-19T06:01:26Z,1450504886,2015,6,2,353.251,353.251,67.34629,26.82771,-999.00,-999.00,-999.0,no,no,no,300234060792690,IMB,SAMS,unknown,North
2015-12-19T08:02:24Z,1450512144,2015,8,2,353.335,353.335,67.34632,26.82783,-999.00,-999.00,-999.0,no,no,no,300234060792690,IMB,SAMS,unknown,North
2015-12-19T10:01:55Z,1450519315,2015,10,2,353.418,353.418,67.34632,26.82757,-999.00,-999.00,-999.0,no,no,no,300234060792690,IMB,SAMS,unknown,North
2015-12-19T12:00:00Z,1450526400,2015,12,0,353.5,353.5,67.34636,26.82755,-999.00,-999.00,-999.0,no,no,no,300234060792690,IMB,SAMS,unknown,North
2015-12-19T14:05:16Z,1450533917,2015,14,6,353.587,353.587,67.34632,26.82761,-999.00,-999.00,-999.0,no,no,no,300234060792690,IMB,SAMS,unknown,North
2015-12-19T16:01:55Z,1450540915,2015,16,2,353.668,353.668,67.34633,26.82758,-999.00,-999.00,-999.0,no,no,no,300234060792690,IMB,SAMS,unknown,North
2015-12-19T18:00:00Z,1450548000,2015,18,0,353.75,353.75,67.34625,26.82755,-999.00,-999.00,-999.0,no,no,no,300234060792690,IMB,SAMS,unknown,North
2015-12-19T20:02:24Z,1450555344,2015,20,2,353.835,353.835,67.34632,26.8276,-999.00,-999.00,-999.0,no,no,no,300234060792690,IMB,SAMS,unknown,North
2015-12-19T22:00:28Z,1450562429,2015,22,0,353.917,353.917,67.34632,26.82753,-999.00,-999.00,-999.0,no,no,no,300234060792690,IMB,SAMS,unknown,North
2015-12-20T00:00:00Z,1450569600,2015,0,0,354.0,354.0,67.34627,26.82756,-999.00,-999.00,-999.0,no,no,no,300234060792690,IMB,SAMS,unknown,North
2015-12-20T02:02:24Z,1450576944,2015,2,2,354.085,354.085,67.34632,26.82757,-999.00,-999.00,-999.0,no,no,no,300234060792690,IMB,SAMS,unknown,North
2015-12-20T04:00:28Z,1450584029,2015,4,0,354.167,354.167,67.34632,26.82768,-999.00,-999.00,-999.0,no,no,no,300234060792690,IMB,SAMS,unknown,North
2015-12-20T06:00:00Z,1450591200,2015,6,0,354.25,354.25,67.34632,26.82764,-999.00,-999.00,-999.0,no,no,no,300234060792690,IMB,SAMS,unknown,North
2015-12-20T08:02:24Z,1450598544,2015,8,2,354.335,354.335,67.34636,26.82763,-999.00,-999.00,-999.0,no,no,no,300234060792690,IMB,SAMS,unknown,North
2015-12-20T10:00:28Z,1450605629,2015,10,1,354.417,354.417,67.34629,26.82757,-999.00,-999.00,-999.0,no,no,no,300234060792690,IMB,SAMS,unknown,North
2015-12-20T12:00:00Z,1450612800,2015,12,0,354.5,354.5,67.34636,26.82776,-999.00,-999.00,-999.0,no,no,no,300234060792690,IMB,SAMS,unknown,North
2015-12-20T14:05:16Z,1450620317,2015,14,6,354.587,354.587,67.34624,26.82755,-999.00,-999.00,-999.0,no,no,no,300234060792690,IMB,SAMS,unknown,North
2015-12-20T16:00:28Z,1450627229,2015,16,0,354.667,354.667,67.34627,26.82747,-999.00,-999.00,-999.0,no,no,no,300234060792690,IMB,SAMS,unknown,North
2015-12-20T18:00:00Z,1450634400,2015,18,0,354.75,354.75,67.34629,26.82755,-999.00,-999.00,-999.0,no,no,no,300234060792690,IMB,SAMS,unknown,North
2015-12-20T20:02:24Z,1450641744,2015,20,2,354.835,354.835,67.34632,26.82755,-999.00,-999.00,-999.0,no,no,no,300234060792690,IMB,SAMS,unknown,North
2015-12-20T22:00:28Z,1450648829,2015,22,0,354.917,354.917,67.34636,26.82749,-999.00,-999.00,-999.0,no,no,no,300234060792690,IMB,SAMS,unknown,North
2015-12-21T00:01:26Z,1450656086,2015,0,1,355.001,355.001,67.34633,26.8277,-999.00,-999.00,-999.0,no,no,no,300234060792690,IMB,SAMS,unknown,North
2015-12-21T02:02:24Z,1450663344,2015,2,2,355.085,355.085,67.34636,26.82758,-999.00,-999.00,-999.0,no,no,no,300234060792690,IMB,SAMS,unknown,North
2015-12-21T04:00:28Z,1450670429,2015,4,0,355.167,355.167,67.34629,26.8276,-999.00,-999.00,-999.0,no,no,no,300234060792690,IMB,SAMS,unknown,North
2015-12-21T06:00:00Z,1450677600,2015,6,0,355.25,355.25,67.34629,26.82768,-999.00,-999.00,-999.0,no,no,no,300234060792690,IMB,SAMS,unknown,North
2015-12-21T08:02:24Z,1450684944,2015,8,2,355.335,355.335,67.34636,26.82764,-999.00,-999.00,-999.0,no,no,no,300234060792690,IMB,SAMS,unknown,North
2015-12-21T10:00:28Z,1450692029,2015,10,0,355.417,355.417,67.34633,26.82751,-999.00,-999.00,-999.0,no,no,no,300234060792690,IMB,SAMS,unknown,North
2015-12-21T12:00:00Z,1450699200,2015,12,0,355.5,355.5,67.34636,26.82757,-999.00,-999.00,-999.0,no,no,no,300234060792690,IMB,SAMS,unknown,North
2015-12-21T14:05:16Z,1450706717,2015,14,6,355.587,355.587,67.3462,26.82769,-999.00,-999.00,-999.0,no,no,no,300234060792690,IMB,SAMS,unknown,North
2015-12-21T16:00:28Z,1450713629,2015,16,0,355.667,355.667,67.34632,26.82753,-999.00,-999.00,-999.0,no,no,no,300234060792690,IMB,SAMS,unknown,North
2015-12-21T18:00:00Z,1450720800,2015,18,0,355.75,355.75,67.34625,26.82753,-999.00,-999.00,-999.0,no,no,no,300234060792690,IMB,SAMS,unknown,North
2015-12-21T20:02:24Z,1450728144,2015,20,2,355.835,355.835,67.34632,26.82762,-999.00,-999.00,-999.0,no,no,no,300234060792690,IMB,SAMS,unknown,North
2015-12-21T22:00:28Z,1450735229,2015,22,1,355.917,355.917,67.34632,26.82757,-999.00,-999.00,-999.0,no,no,no,300234060792690,IMB,SAMS,unknown,North
2015-12-22T00:00:00Z,1450742400,2015,0,0,356.0,356.0,67.34624,26.82759,-999.00,-999.00,-999.0,no,no,no,300234060792690,IMB,SAMS,unknown,North
2015-12-22T02:02:24Z,1450749744,2015,2,2,356.085,356.085,67.34633,26.82753,-999.00,-999.00,-999.0,no,no,no,300234060792690,IMB,SAMS,unknown,North
2015-12-22T04:00:28Z,1450756829,2015,4,0,356.167,356.167,67.34632,26.82767,-999.00,-999.00,-999.0,no,no,no,300234060792690,IMB,SAMS,unknown,North
2015-12-22T06:00:00Z,1450764000,2015,6,0,356.25,356.25,67.34632,26.82767,-999.00,-999.00,-999.0,no,no,no,300234060792690,IMB,SAMS,unknown,North
2015-12-22T08:02:24Z,1450771344,2015,8,2,356.335,356.335,67.34636,26.82761,-999.00,-999.00,-999.0,no,no,no,300234060792690,IMB,SAMS,unknown,North
2015-12-22T10:00:28Z,1450778429,2015,10,0,356.417,356.417,67.34636,26.82753,-999.00,-999.00,-999.0,no,no,no,300234060792690,IMB,SAMS,unknown,North
2015-12-22T12:00:00Z,1450785600,2015,12,0,356.5,356.5,67.34636,26.82757,-999.00,-999.00,-999.0,no,no,no,300234060792690,IMB,SAMS,unknown,North
2015-12-22T14:08:09Z,1450793290,2015,14,8,356.589,356.589,67.34629,26.8276,-999.00,-999.00,-999.0,no,no,no,300234060792690,IMB,SAMS,unknown,North
2015-12-22T16:00:28Z,1450800029,2015,16,0,356.667,356.667,67.34632,26.82754,-999.00,-999.00,-999.0,no,no,no,300234060792690,IMB,SAMS,unknown,North
2015-12-22T18:00:00Z,1450807200,2015,18,0,356.75,356.75,67.34624,26.82754,-999.00,-999.00,-999.0,no,no,no,300234060792690,IMB,SAMS,unknown,North
2015-12-22T20:02:24Z,1450814544,2015,20,2,356.835,356.835,67.34627,26.82773,-999.00,-999.00,-999.0,no,no,no,300234060792690,IMB,SAMS,unknown,North
2015-12-22T22:00:28Z,1450821629,2015,22,0,356.917,356.917,67.34632,26.82754,-999.00,-999.00,-999.0,no,no,no,300234060792690,IMB,SAMS,unknown,North
2015-12-23T00:00:00Z,1450828800,2015,0,0,357.0,357.0,67.34627,26.82764,-999.00,-999.00,-999.0,no,no,no,300234060792690,IMB,SAMS,unknown,North
2015-12-23T02:02:24Z,1450836144,2015,2,2,357.085,357.085,67.34633,26.82753,-999.00,-999.00,-999.0,no,no,no,300234060792690,IMB,SAMS,unknown,North
2015-12-23T04:00:28Z,1450843229,2015,4,0,357.167,357.167,67.34632,26.82767,-999.00,-999.00,-999.0,no,no,no,300234060792690,IMB,SAMS,unknown,North
2015-12-23T06:00:00Z,1450850400,2015,6,0,357.25,357.25,67.34632,26.82766,-999.00,-999.00,-999.0,no,no,no,300234060792690,IMB,SAMS,unknown,North
2015-12-23T08:02:24Z,1450857744,2015,8,2,357.335,357.335,67.34636,26.82764,-999.00,-999.00,-999.0,no,no,no,300234060792690,IMB,SAMS,unknown,North
2015-12-23T10:00:28Z,1450864829,2015,10,0,357.417,357.417,67.34632,26.82767,-999.00,-999.00,-999.0,no,no,no,300234060792690,IMB,SAMS,unknown,North
2015-12-23T12:00:00Z,1450872000,2015,12,0,357.5,357.5,67.34633,26.82754,-999.00,-999.00,-999.0,no,no,no,300234060792690,IMB,SAMS,unknown,North
2015-12-23T14:06:43Z,1450879603,2015,14,7,357.588,357.588,67.34629,26.82758,-999.00,-999.00,-999.0,no,no,no,300234060792690,IMB,SAMS,unknown,North
2015-12-23T16:00:28Z,1450886429,2015,16,0,357.667,357.667,67.34633,26.82762,-999.00,-999.00,-999.0,no,no,no,300234060792690,IMB,SAMS,unknown,North
2015-12-23T18:00:00Z,1450893600,2015,18,0,357.75,357.75,67.34625,26.82755,-999.00,-999.00,-999.0,no,no,no,300234060792690,IMB,SAMS,unknown,North
2015-12-23T20:02:24Z,1450900944,2015,20,2,357.835,357.835,67.34629,26.82755,-999.00,-999.00,-999.0,no,no,no,300234060792690,IMB,SAMS,unknown,North
2015-12-23T22:00:28Z,1450908029,2015,22,0,357.917,357.917,67.34636,26.82757,-999.00,-999.00,-999.0,no,no,no,300234060792690,IMB,SAMS,unknown,North
2015-12-24T00:00:00Z,1450915200,2015,0,0,358.0,358.0,67.34629,26.8277,-999.00,-999.00,-999.0,no,no,no,300234060792690,IMB,SAMS,unknown,North
2015-12-24T02:02:24Z,1450922544,2015,2,2,358.085,358.085,67.34632,26.82746,-999.00,-999.00,-999.0,no,no,no,300234060792690,IMB,SAMS,unknown,North
2015-12-24T04:00:28Z,1450929629,2015,4,0,358.167,358.167,67.34632,26.82769,-999.00,-999.00,-999.0,no,no,no,300234060792690,IMB,SAMS,unknown,North
2015-12-24T06:00:00Z,1450936800,2015,6,0,358.25,358.25,67.34632,26.82767,-999.00,-999.00,-999.0,no,no,no,300234060792690,IMB,SAMS,unknown,North
2015-12-24T08:02:24Z,1450944144,2015,8,2,358.335,358.335,67.34636,26.82764,-999.00,-999.00,-999.0,no,no,no,300234060792690,IMB,SAMS,unknown,North
2015-12-24T10:00:28Z,1450951229,2015,10,0,358.417,358.417,67.34636,26.82749,-999.00,-999.00,-999.0,no,no,no,300234060792690,IMB,SAMS,unknown,North
2015-12-24T12:00:00Z,1450958400,2015,12,0,358.5,358.5,67.34632,26.82757,-999.00,-999.00,-999.0,no,no,no,300234060792690,IMB,SAMS,unknown,North
2015-12-24T14:05:16Z,1450965917,2015,14,6,358.587,358.587,67.34627,26.82762,-999.00,-999.00,-999.0,no,no,no,300234060792690,IMB,SAMS,unknown,North
2015-12-24T16:00:28Z,1450972829,2015,16,0,358.667,358.667,67.34632,26.8276,-999.00,-999.00,-999.0,no,no,no,300234060792690,IMB,SAMS,unknown,North
2015-12-24T18:00:00Z,1450980000,2015,18,0,358.75,358.75,67.34627,26.82751,-999.00,-999.00,-999.0,no,no,no,300234060792690,IMB,SAMS,unknown,North
2015-12-24T20:02:24Z,1450987344,2015,20,2,358.835,358.835,67.34629,26.82757,-999.00,-999.00,-999.0,no,no,no,300234060792690,IMB,SAMS,unknown,North
2015-12-24T22:00:28Z,1450994429,2015,22,0,358.917,358.917,67.34637,26.8275,-999.00,-999.00,-999.0,no,no,no,300234060792690,IMB,SAMS,unknown,North
2015-12-25T00:00:00Z,1451001600,2015,0,0,359.0,359.0,67.34627,26.82771,-999.00,-999.00,-999.0,no,no,no,300234060792690,IMB,SAMS,unknown,North
2015-12-25T02:02:24Z,1451008944,2015,2,2,359.085,359.085,67.34636,26.8275,-999.00,-999.00,-999.0,no,no,no,300234060792690,IMB,SAMS,unknown,North
2015-12-25T04:00:28Z,1451016029,2015,4,0,359.167,359.167,67.34632,26.82767,-999.00,-999.00,-999.0,no,no,no,300234060792690,IMB,SAMS,unknown,North
2015-12-25T06:00:00Z,1451023200,2015,6,0,359.25,359.25,67.34629,26.82769,-999.00,-999.00,-999.0,no,no,no,300234060792690,IMB,SAMS,unknown,North
2015-12-25T08:02:24Z,1451030544,2015,8,2,359.335,359.335,67.34633,26.82757,-999.00,-999.00,-999.0,no,no,no,300234060792690,IMB,SAMS,unknown,North
2015-12-25T10:00:28Z,1451037629,2015,10,0,359.417,359.417,67.34636,26.8275,-999.00,-999.00,-999.0,no,no,no,300234060792690,IMB,SAMS,unknown,North
2015-12-25T12:00:00Z,1451044800,2015,12,0,359.5,359.5,67.34625,26.82756,-999.00,-999.00,-999.0,no,no,no,300234060792690,IMB,SAMS,unknown,North
2015-12-25T14:05:16Z,1451052317,2015,14,6,359.587,359.587,67.34627,26.82762,-999.00,-999.00,-999.0,no,no,no,300234060792690,IMB,SAMS,unknown,North
2015-12-25T16:00:28Z,1451059229,2015,16,0,359.667,359.667,67.34633,26.8276,-999.00,-999.00,-999.0,no,no,no,300234060792690,IMB,SAMS,unknown,North
2015-12-25T18:00:00Z,1451066400,2015,18,0,359.75,359.75,67.34624,26.82753,-999.00,-999.00,-999.0,no,no,no,300234060792690,IMB,SAMS,unknown,North
2015-12-25T20:02:24Z,1451073744,2015,20,2,359.835,359.835,67.34632,26.82755,-999.00,-999.00,-999.0,no,no,no,300234060792690,IMB,SAMS,unknown,North
2015-12-25T22:00:28Z,1451080829,2015,22,0,359.917,359.917,67.34636,26.82742,-999.00,-999.00,-999.0,no,no,no,300234060792690,IMB,SAMS,unknown,North
2015-12-26T00:01:26Z,1451088086,2015,0,1,360.001,360.001,67.34629,26.82754,-999.00,-999.00,-999.0,no,no,no,300234060792690,IMB,SAMS,unknown,North
2015-12-26T02:02:24Z,1451095344,2015,2,2,360.085,360.085,67.34636,26.82753,-999.00,-999.00,-999.0,no,no,no,300234060792690,IMB,SAMS,unknown,North
2015-12-26T04:00:28Z,1451102429,2015,4,0,360.167,360.167,67.34627,26.82765,-999.00,-999.00,-999.0,no,no,no,300234060792690,IMB,SAMS,unknown,North
2015-12-26T06:00:00Z,1451109600,2015,6,0,360.25,360.25,67.34632,26.82766,-999.00,-999.00,-999.0,no,no,no,300234060792690,IMB,SAMS,unknown,North
2015-12-26T08:02:24Z,1451116944,2015,8,2,360.335,360.335,67.34633,26.82758,-999.00,-999.00,-999.0,no,no,no,300234060792690,IMB,SAMS,unknown,North
2015-12-26T10:00:28Z,1451124029,2015,10,0,360.417,360.417,67.34637,26.82762,-999.00,-999.00,-999.0,no,no,no,300234060792690,IMB,SAMS,unknown,North
2015-12-26T12:00:00Z,1451131200,2015,12,0,360.5,360.5,67.34627,26.82754,-999.00,-999.00,-999.0,no,no,no,300234060792690,IMB,SAMS,unknown,North
2015-12-26T14:05:16Z,1451138717,2015,14,6,360.587,360.587,67.34629,26.8276,-999.00,-999.00,-999.0,no,no,no,300234060792690,IMB,SAMS,unknown,North
2015-12-26T16:00:28Z,1451145629,2015,16,0,360.667,360.667,67.34632,26.82755,-999.00,-999.00,-999.0,no,no,no,300234060792690,IMB,SAMS,unknown,North
2015-12-26T18:00:00Z,1451152800,2015,18,0,360.75,360.75,67.34623,26.82754,-999.00,-999.00,-999.0,no,no,no,300234060792690,IMB,SAMS,unknown,North
2015-12-26T20:02:24Z,1451160144,2015,20,2,360.835,360.835,67.34632,26.82764,-999.00,-999.00,-999.0,no,no,no,300234060792690,IMB,SAMS,unknown,North
2015-12-26T22:00:28Z,1451167229,2015,22,1,360.917,360.917,67.34636,26.82761,-999.00,-999.00,-999.0,no,no,no,300234060792690,IMB,SAMS,unknown,North
2015-12-27T00:02:52Z,1451174573,2015,0,3,361.002,361.002,67.34623,26.82759,-999.00,-999.00,-999.0,no,no,no,300234060792690,IMB,SAMS,unknown,North
2015-12-27T02:02:24Z,1451181744,2015,2,2,361.085,361.085,67.34636,26.82756,-999.00,-999.00,-999.0,no,no,no,300234060792690,IMB,SAMS,unknown,North
2015-12-27T04:00:28Z,1451188829,2015,4,0,361.167,361.167,67.34632,26.82773,-999.00,-999.00,-999.0,no,no,no,300234060792690,IMB,SAMS,unknown,North
2015-12-27T06:00:00Z,1451196000,2015,6,0,361.25,361.25,67.34633,26.82768,-999.00,-999.00,-999.0,no,no,no,300234060792690,IMB,SAMS,unknown,North
2015-12-27T08:02:24Z,1451203344,2015,8,2,361.335,361.335,67.34633,26.82757,-999.00,-999.00,-999.0,no,no,no,300234060792690,IMB,SAMS,unknown,North
2015-12-27T10:00:28Z,1451210429,2015,10,0,361.417,361.417,67.34636,26.82761,-999.00,-999.00,-999.0,no,no,no,300234060792690,IMB,SAMS,unknown,North
2015-12-27T12:00:00Z,1451217600,2015,12,0,361.5,361.5,67.34629,26.82752,-999.00,-999.00,-999.0,no,no,no,300234060792690,IMB,SAMS,unknown,North
2015-12-27T14:05:16Z,1451225117,2015,14,6,361.587,361.587,67.34632,26.82762,-999.00,-999.00,-999.0,no,no,no,300234060792690,IMB,SAMS,unknown,North
2015-12-27T16:00:28Z,1451232029,2015,16,0,361.667,361.667,67.34632,26.82753,-999.00,-999.00,-999.0,no,no,no,300234060792690,IMB,SAMS,unknown,North
2015-12-27T18:00:00Z,1451239200,2015,18,0,361.75,361.75,67.34623,26.82751,-999.00,-999.00,-999.0,no,no,no,300234060792690,IMB,SAMS,unknown,North
2015-12-27T20:02:24Z,1451246544,2015,20,2,361.835,361.835,67.34632,26.82762,-999.00,-999.00,-999.0,no,no,no,300234060792690,IMB,SAMS,unknown,North
2015-12-27T22:00:28Z,1451253629,2015,22,1,361.917,361.917,67.34636,26.8276,-999.00,-999.00,-999.0,no,no,no,300234060792690,IMB,SAMS,unknown,North
2015-12-28T00:00:00Z,1451260800,2015,0,0,362.0,362.0,67.34636,26.82762,-999.00,-999.00,-999.0,no,no,no,300234060792690,IMB,SAMS,unknown,North
2015-12-28T02:02:24Z,1451268144,2015,2,2,362.085,362.085,67.34636,26.8276,-999.00,-999.00,-999.0,no,no,no,300234060792690,IMB,SAMS,unknown,North
2015-12-28T04:00:28Z,1451275229,2015,4,1,362.167,362.167,67.34632,26.8277,-999.00,-999.00,-999.0,no,no,no,300234060792690,IMB,SAMS,unknown,North
2015-12-28T06:00:00Z,1451282400,2015,6,0,362.25,362.25,67.34627,26.82771,-999.00,-999.00,-999.0,no,no,no,300234060792690,IMB,SAMS,unknown,North
2015-12-28T08:02:24Z,1451289744,2015,8,2,362.335,362.335,67.34633,26.82759,-999.00,-999.00,-999.0,no,no,no,300234060792690,IMB,SAMS,unknown,North
2015-12-28T10:00:28Z,1451296829,2015,10,1,362.417,362.417,67.34636,26.8276,-999.00,-999.00,-999.0,no,no,no,300234060792690,IMB,SAMS,unknown,North
2015-12-28T12:01:26Z,1451304086,2015,12,1,362.501,362.501,67.34632,26.82738,-999.00,-999.00,-999.0,no,no,no,300234060792690,IMB,SAMS,unknown,North
2015-12-28T14:05:16Z,1451311517,2015,14,6,362.587,362.587,67.34627,26.82764,-999.00,-999.00,-999.0,no,no,no,300234060792690,IMB,SAMS,unknown,North
2015-12-28T16:00:28Z,1451318429,2015,16,1,362.667,362.667,67.34637,26.82761,-999.00,-999.00,-999.0,no,no,no,300234060792690,IMB,SAMS,unknown,North
2015-12-28T18:01:26Z,1451325686,2015,18,1,362.751,362.751,67.34625,26.82753,-999.00,-999.00,-999.0,no,no,no,300234060792690,IMB,SAMS,unknown,North
2015-12-28T20:02:24Z,1451332944,2015,20,3,362.835,362.835,67.34632,26.82759,-999.00,-999.00,-999.0,no,no,no,300234060792690,IMB,SAMS,unknown,North
2015-12-28T22:00:28Z,1451340029,2015,22,1,362.917,362.917,67.34636,26.82761,-999.00,-999.00,-999.0,no,no,no,300234060792690,IMB,SAMS,unknown,North
2015-12-29T00:01:26Z,1451347286,2015,0,1,363.001,363.001,67.34633,26.82764,-999.00,-999.00,-999.0,no,no,no,300234060792690,IMB,SAMS,unknown,North
2015-12-29T02:02:24Z,1451354544,2015,2,3,363.085,363.085,67.34633,26.82761,-999.00,-999.00,-999.0,no,no,no,300234060792690,IMB,SAMS,unknown,North
2015-12-29T04:00:28Z,1451361629,2015,4,1,363.167,363.167,67.34632,26.82773,-999.00,-999.00,-999.0,no,no,no,300234060792690,IMB,SAMS,unknown,North
2015-12-29T06:01:26Z,1451368886,2015,6,1,363.251,363.251,67.34629,26.82764,-999.00,-999.00,-999.0,no,no,no,300234060792690,IMB,SAMS,unknown,North
2015-12-29T08:02:24Z,1451376144,2015,8,3,363.335,363.335,67.34636,26.82761,-999.00,-999.00,-999.0,no,no,no,300234060792690,IMB,SAMS,unknown,North
2015-12-29T10:00:28Z,1451383229,2015,10,1,363.417,363.417,67.34636,26.82758,-999.00,-999.00,-999.0,no,no,no,300234060792690,IMB,SAMS,unknown,North
2015-12-29T12:01:26Z,1451390486,2015,12,1,363.501,363.501,67.34632,26.82754,-999.00,-999.00,-999.0,no,no,no,300234060792690,IMB,SAMS,unknown,North
2015-12-29T14:05:16Z,1451397917,2015,14,6,363.587,363.587,67.34627,26.82758,-999.00,-999.00,-999.0,no,no,no,300234060792690,IMB,SAMS,unknown,North
2015-12-29T16:00:28Z,1451404829,2015,16,1,363.667,363.667,67.34632,26.82753,-999.00,-999.00,-999.0,no,no,no,300234060792690,IMB,SAMS,unknown,North
2015-12-29T18:01:26Z,1451412086,2015,18,1,363.751,363.751,67.34627,26.82753,-999.00,-999.00,-999.0,no,no,no,300234060792690,IMB,SAMS,unknown,North
2015-12-29T20:02:24Z,1451419344,2015,20,2,363.835,363.835,67.34632,26.8276,-999.00,-999.00,-999.0,no,no,no,300234060792690,IMB,SAMS,unknown,North
2015-12-29T22:00:28Z,1451426429,2015,22,1,363.917,363.917,67.34629,26.82758,-999.00,-999.00,-999.0,no,no,no,300234060792690,IMB,SAMS,unknown,North
2015-12-30T00:01:26Z,1451433686,2015,0,1,364.001,364.001,67.34632,26.82764,-999.00,-999.00,-999.0,no,no,no,300234060792690,IMB,SAMS,unknown,North
2015-12-30T02:02:24Z,1451440944,2015,2,2,364.085,364.085,67.34633,26.82761,-999.00,-999.00,-999.0,no,no,no,300234060792690,IMB,SAMS,unknown,North
2015-12-30T04:00:28Z,1451448029,2015,4,1,364.167,364.167,67.34633,26.82771,-999.00,-999.00,-999.0,no,no,no,300234060792690,IMB,SAMS,unknown,North
2015-12-30T06:01:26Z,1451455286,2015,6,1,364.251,364.251,67.34629,26.82767,-999.00,-999.00,-999.0,no,no,no,300234060792690,IMB,SAMS,unknown,North
2015-12-30T08:02:24Z,1451462544,2015,8,2,364.335,364.335,67.34637,26.82761,-999.00,-999.00,-999.0,no,no,no,300234060792690,IMB,SAMS,unknown,North
2015-12-30T10:00:28Z,1451469629,2015,10,1,364.417,364.417,67.34636,26.82762,-999.00,-999.00,-999.0,no,no,no,300234060792690,IMB,SAMS,unknown,North
2015-12-30T12:01:26Z,1451476886,2015,12,1,364.501,364.501,67.34632,26.82755,-999.00,-999.00,-999.0,no,no,no,300234060792690,IMB,SAMS,unknown,North
2015-12-30T14:05:16Z,1451484317,2015,14,6,364.587,364.587,67.34632,26.8276,-999.00,-999.00,-999.0,no,no,no,300234060792690,IMB,SAMS,unknown,North
2015-12-30T16:00:28Z,1451491229,2015,16,1,364.667,364.667,67.34632,26.82754,-999.00,-999.00,-999.0,no,no,no,300234060792690,IMB,SAMS,unknown,North
2015-12-30T18:01:26Z,1451498486,2015,18,1,364.751,364.751,67.34627,26.82751,-999.00,-999.00,-999.0,no,no,no,300234060792690,IMB,SAMS,unknown,North
2015-12-30T20:02:24Z,1451505744,2015,20,2,364.835,364.835,67.34633,26.82757,-999.00,-999.00,-999.0,no,no,no,300234060792690,IMB,SAMS,unknown,North
2015-12-30T22:00:28Z,1451512829,2015,22,1,364.917,364.917,67.34627,26.82756,-999.00,-999.00,-999.0,no,no,no,300234060792690,IMB,SAMS,unknown,North
2015-12-31T00:01:26Z,1451520086,2015,0,1,365.001,365.001,67.34627,26.82757,-999.00,-999.00,-999.0,no,no,no,300234060792690,IMB,SAMS,unknown,North
2015-12-31T02:02:24Z,1451527344,2015,2,2,365.085,365.085,67.34633,26.82758,-999.00,-999.00,-999.0,no,no,no,300234060792690,IMB,SAMS,unknown,North